| time (UTC) | temp C | wind direction | speed KPH | gust KPH | rain 1hr cm | rain 24hr cm | rain mn cm | humidity % | barometer mb |
| 20260509102053 | 31 | 136 | 4.8 | 27.4 | 0.00 | 0.00 | 0.00 | 70 | 1009.0 |
| 20260509101553 | 31 | 128 | 6.4 | 27.4 | 0.00 | 0.00 | 0.00 | 70 | 1009.0 |
| 20260509101053 | 31 | 150 | 3.2 | 25.7 | 0.00 | 0.00 | 0.00 | 70 | 1009.0 |
| 20260509100553 | 31 | 184 | 1.6 | 25.7 | 0.00 | 0.00 | 0.00 | 69 | 1009.0 |
| 20260509095553 | 31 | 149 | 9.7 | 24.1 | 0.00 | 0.00 | 0.00 | 68 | 1008.7 |
| 20260509095053 | 31 | 147 | 4.8 | 25.7 | 0.00 | 0.00 | 0.00 | 68 | 1008.7 |
| 20260509094053 | 32 | 179 | 9.7 | 20.9 | 0.00 | 0.00 | 0.00 | 67 | 1008.6 |
| 20260509093053 | 32 | 146 | 6.4 | 22.5 | 0.00 | 0.00 | 0.00 | 66 | 1008.4 |
| 20260509092553 | 32 | 133 | 9.7 | 22.5 | 0.00 | 0.00 | 0.00 | 66 | 1008.4 |
| 20260509091053 | 32 | 149 | 9.7 | 30.6 | 0.00 | 0.00 | 0.00 | 66 | 1008.1 |
| 20260509090553 | 32 | 170 | 9.7 | 30.6 | 0.00 | 0.00 | 0.00 | 66 | 1008.0 |
| 20260509090053 | 32 | 163 | 4.8 | 25.7 | 0.00 | 0.00 | 0.00 | 65 | 1008.0 |
| 20260509085553 | 32 | 86 | 12.9 | 25.7 | 0.00 | 0.00 | 0.00 | 64 | 1007.9 |
| 20260509085053 | 32 | 111 | 9.7 | 29.0 | 0.00 | 0.00 | 0.00 | 63 | 1007.9 |
| 20260509084053 | 33 | 116 | 4.8 | 27.4 | 0.00 | 0.00 | 0.00 | 62 | 1007.9 |
| 20260509083053 | 33 | 159 | 4.8 | 30.6 | 0.00 | 0.00 | 0.00 | 62 | 1007.7 |
| 20260509082553 | 33 | 115 | 19.3 | 30.6 | 0.00 | 0.00 | 0.00 | 62 | 1007.8 |
| 20260509082053 | 33 | 144 | 6.4 | 24.1 | 0.00 | 0.00 | 0.00 | 63 | 1007.8 |
| 20260509081554 | 33 | 144 | 9.7 | 29.0 | 0.00 | 0.00 | 0.00 | 62 | 1007.5 |
| 20260509081053 | 33 | 109 | 8.0 | 29.0 | 0.00 | 0.00 | 0.00 | 61 | 1007.7 |
| 20260509080553 | 33 | 91 | 17.7 | 25.7 | 0.00 | 0.00 | 0.00 | 61 | 1007.5 |
| 20260509080053 | 33 | 108 | 14.5 | 33.8 | 0.00 | 0.00 | 0.00 | 61 | 1007.4 |
| 20260509075553 | 33 | 116 | 11.3 | 33.8 | 0.00 | 0.00 | 0.00 | 60 | 1007.4 |
| 20260509074053 | 33 | 136 | 11.3 | 29.0 | 0.00 | 0.00 | 0.00 | 60 | 1007.7 |
| 20260509073553 | 33 | 102 | 24.1 | 33.8 | 0.00 | 0.00 | 0.00 | 60 | 1007.6 |
| 20260509072553 | 33 | 131 | 14.5 | 32.2 | 0.00 | 0.00 | 0.00 | 59 | 1007.8 |
| 20260509072053 | 33 | 120 | 14.5 | 32.2 | 0.00 | 0.00 | 0.00 | 58 | 1007.6 |
| 20260509071553 | 33 | 111 | 6.4 | 30.6 | 0.00 | 0.00 | 0.00 | 59 | 1007.9 |
| 20260509070553 | 33 | 139 | 14.5 | 33.8 | 0.00 | 0.00 | 0.00 | 58 | 1008.0 |
| 20260509070053 | 33 | 162 | 3.2 | 29.0 | 0.00 | 0.00 | 0.00 | 62 | 1008.1 |
| 20260509065053 | 33 | 106 | 6.4 | 29.0 | 0.00 | 0.00 | 0.00 | 60 | 1008.2 |
| 20260509064554 | 34 | 92 | 11.3 | 30.6 | 0.00 | 0.00 | 0.00 | 57 | 1008.2 |
| 20260509064053 | 34 | 108 | 16.1 | 32.2 | 0.00 | 0.00 | 0.00 | 56 | 1008.0 |
| 20260509063553 | 33 | 126 | 8.0 | 32.2 | 0.00 | 0.00 | 0.00 | 60 | 1008.3 |
| 20260509063054 | 33 | 131 | 12.9 | 29.0 | 0.00 | 0.00 | 0.00 | 58 | 1008.4 |
| 20260509062553 | 34 | 104 | 4.8 | 29.0 | 0.00 | 0.00 | 0.00 | 57 | 1008.3 |
| 20260509061553 | 34 | 159 | 6.4 | 22.5 | 0.00 | 0.00 | 0.00 | 58 | 1008.4 |
| 20260509061053 | 34 | 135 | 6.4 | 24.1 | 0.00 | 0.00 | 0.00 | 58 | 1008.4 |
| 20260509060553 | 34 | 148 | 16.1 | 24.1 | 0.00 | 0.00 | 0.00 | 57 | 1008.4 |
| 20260509055053 | 34 | 125 | 8.0 | 24.1 | 0.00 | 0.00 | 0.00 | 57 | 1008.7 |
| 20260509054553 | 34 | 131 | 17.7 | 30.6 | 0.00 | 0.00 | 0.00 | 56 | 1008.7 |
| 20260509053553 | 33 | 166 | 11.3 | 29.0 | 0.00 | 0.00 | 0.00 | 57 | 1008.9 |
| 20260509053054 | 35 | 119 | 14.5 | 20.9 | 0.00 | 0.00 | 0.00 | 54 | 1008.9 |
| 20260509052553 | 34 | 155 | 9.7 | 25.7 | 0.00 | 0.00 | 0.00 | 56 | 1008.9 |
| 20260509052053 | 34 | 103 | 8.0 | 25.7 | 0.00 | 0.00 | 0.00 | 57 | 1009.1 |
| 20260509051553 | 34 | 82 | 17.7 | 27.4 | 0.00 | 0.00 | 0.00 | 56 | 1009.1 |
| 20260509051053 | 34 | 127 | 22.5 | 27.4 | 0.00 | 0.00 | 0.00 | 58 | 1009.2 |
| 20260509050553 | 34 | 126 | 11.3 | 25.7 | 0.00 | 0.00 | 0.00 | 57 | 1009.4 |
| 20260509050053 | 34 | 138 | 14.5 | 25.7 | 0.00 | 0.00 | 0.00 | 56 | 1009.4 |
| 20260509045053 | 34 | 101 | 17.7 | 25.7 | 0.00 | 0.00 | 0.00 | 55 | 1009.8 |
| 20260509044553 | 34 | 158 | 4.8 | 17.7 | 0.00 | 0.00 | 0.00 | 57 | 1009.8 |
| 20260509044053 | 34 | 192 | 3.2 | 20.9 | 0.00 | 0.00 | 0.00 | 57 | 1010.1 |
| 20260509043553 | 33 | 196 | 3.2 | 20.9 | 0.00 | 0.00 | 0.00 | 58 | 1010.0 |
| 20260509043053 | 33 | 151 | 16.1 | 20.9 | 0.00 | 0.00 | 0.00 | 57 | 1010.1 |
| 20260509042553 | 33 | 127 | 16.1 | 20.9 | 0.00 | 0.00 | 0.00 | 57 | 1010.2 |
| 20260509042053 | 33 | 159 | 6.4 | 20.9 | 0.00 | 0.00 | 0.00 | 57 | 1010.4 |
| 20260509041553 | 33 | 141 | 14.5 | 19.3 | 0.00 | 0.00 | 0.00 | 57 | 1010.4 |
| 20260509041052 | 34 | 133 | 16.1 | 24.1 | 0.00 | 0.00 | 0.00 | 56 | 1010.6 |
| 20260509040553 | 34 | 117 | 11.3 | 24.1 | 0.00 | 0.00 | 0.00 | 55 | 1010.6 |
| 20260509040053 | 33 | 32 | 4.8 | 24.1 | 0.00 | 0.00 | 0.00 | 57 | 1010.6 |
| 20260509035053 | 33 | 141 | 14.5 | 25.7 | 0.00 | 0.00 | 0.00 | 57 | 1010.7 |
| 20260509034553 | 34 | 180 | 4.8 | 17.7 | 0.00 | 0.00 | 0.00 | 58 | 1010.8 |
| 20260509034053 | 33 | 224 | 3.2 | 17.7 | 0.00 | 0.00 | 0.00 | 60 | 1010.7 |
| 20260509033553 | 33 | 140 | 9.7 | 22.5 | 0.00 | 0.00 | 0.00 | 59 | 1010.9 |
| 20260509033053 | 33 | 92 | 8.0 | 22.5 | 0.00 | 0.00 | 0.00 | 59 | 1011.1 |
| 20260509032553 | 33 | 105 | 16.1 | 22.5 | 0.00 | 0.00 | 0.00 | 61 | 1011.1 |
| 20260509032053 | 33 | 122 | 11.3 | 20.9 | 0.00 | 0.00 | 0.00 | 61 | 1011.2 |
| 20260509031553 | 33 | 196 | 8.0 | 20.9 | 0.00 | 0.00 | 0.00 | 63 | 1011.0 |
| 20260509031053 | 33 | 150 | 9.7 | 22.5 | 0.00 | 0.00 | 0.00 | 62 | 1011.0 |
| 20260509030553 | 33 | 129 | 19.3 | 22.5 | 0.00 | 0.00 | 0.00 | 61 | 1011.0 |
| 20260509025553 | 33 | 120 | 9.7 | 24.1 | 0.00 | 0.00 | 0.00 | 60 | 1011.4 |
| 20260509024553 | 32 | 106 | 17.7 | 30.6 | 0.00 | 0.00 | 0.00 | 62 | 1011.3 |
| 20260509024053 | 33 | 166 | 3.2 | 17.7 | 0.00 | 0.00 | 0.00 | 62 | 1011.5 |
| 20260509023053 | 32 | 139 | 8.0 | 24.1 | 0.00 | 0.00 | 0.00 | 62 | 1011.6 |
| 20260509022553 | 32 | 98 | 14.5 | 24.1 | 0.00 | 0.00 | 0.00 | 63 | 1011.6 |
| 20260509022053 | 33 | 97 | 11.3 | 24.1 | 0.00 | 0.00 | 0.00 | 61 | 1011.8 |
| 20260509021554 | 32 | 114 | 8.0 | 24.1 | 0.00 | 0.00 | 0.00 | 64 | 1011.7 |
| 20260509020553 | 32 | 126 | 6.4 | 25.7 | 0.00 | 0.00 | 0.00 | 65 | 1012.0 |
| 20260509020053 | 32 | 128 | 6.4 | 19.3 | 0.00 | 0.00 | 0.00 | 63 | 1012.1 |
| 20260509015553 | 32 | 185 | 8.0 | 22.5 | 0.00 | 0.00 | 0.00 | 66 | 1012.1 |
| 20260509015053 | 32 | 81 | 6.4 | 22.5 | 0.00 | 0.00 | 0.00 | 66 | 1012.1 |
| 20260509014553 | 32 | 100 | 12.9 | 17.7 | 0.00 | 0.00 | 0.00 | 64 | 1011.9 |
| 20260509013553 | 32 | 105 | 4.8 | 17.7 | 0.00 | 0.00 | 0.00 | 67 | 1012.0 |
| 20260509013053 | 32 | 111 | 11.3 | 17.7 | 0.00 | 0.00 | 0.00 | 65 | 1011.9 |
| 20260509012553 | 32 | 156 | 6.4 | 20.9 | 0.00 | 0.00 | 0.00 | 66 | 1012.0 |
| 20260509012053 | 31 | 88 | 0.0 | 20.9 | 0.00 | 0.00 | 0.00 | 68 | 1012.0 |
| 20260509011553 | 31 | 112 | 4.8 | 20.9 | 0.00 | 0.00 | 0.00 | 69 | 1012.0 |
| 20260509010553 | 31 | 88 | 9.7 | 19.3 | 0.00 | 0.00 | 0.00 | 68 | 1012.3 |
| 20260509010053 | 31 | 172 | 6.4 | 19.3 | 0.00 | 0.00 | 0.00 | 68 | 1012.2 |
| 20260509005553 | 31 | 97 | 11.3 | 22.5 | 0.00 | 0.00 | 0.00 | 68 | 1012.3 |
| 20260509005053 | 31 | 100 | 11.3 | 22.5 | 0.00 | 0.00 | 0.00 | 69 | 1012.1 |
| 20260509004553 | 31 | 117 | 6.4 | 17.7 | 0.00 | 0.00 | 0.00 | 69 | 1012.2 |
| 20260509004054 | 31 | 82 | 12.9 | 17.7 | 0.00 | 0.00 | 0.00 | 69 | 1011.9 |
| 20260509003553 | 31 | 97 | 12.9 | 20.9 | 0.00 | 0.00 | 0.00 | 69 | 1012.2 |
| 20260509003053 | 31 | 154 | 11.3 | 20.9 | 0.00 | 0.00 | 0.00 | 71 | 1012.1 |
| 20260509002553 | 31 | 84 | 11.3 | 17.7 | 0.00 | 0.00 | 0.00 | 69 | 1012.2 |
| 20260509002054 | 31 | 163 | 6.4 | 16.1 | 0.00 | 0.00 | 0.00 | 70 | 1012.2 |
| 20260509001553 | 31 | 86 | 9.7 | 16.1 | 0.00 | 0.00 | 0.00 | 69 | 1012.1 |
| 20260509000553 | 31 | 64 | 16.1 | 17.7 | 0.00 | 0.00 | 0.00 | 70 | 1012.1 |
| 20260509000054 | 31 | 190 | 4.8 | 20.9 | 0.00 | 0.00 | 0.00 | 70 | 1012.1 |
| 20260508235553 | 30 | 88 | 6.4 | 20.9 | 0.00 | 0.00 | 0.00 | 71 | 1011.8 |
| 20260508235053 | 30 | 96 | 9.7 | 19.3 | 0.00 | 0.00 | 0.00 | 72 | 1011.8 |
| 20260508234553 | 30 | 39 | 6.4 | 17.7 | 0.00 | 0.00 | 0.00 | 72 | 1011.9 |
| 20260508234053 | 30 | 78 | 6.4 | 17.7 | 0.00 | 0.00 | 0.00 | 72 | 1011.5 |
| 20260508233053 | 30 | 123 | 6.4 | 20.9 | 0.00 | 0.00 | 0.00 | 73 | 1011.5 |
| 20260508232553 | 30 | 97 | 9.7 | 17.7 | 0.00 | 0.00 | 0.00 | 72 | 1011.5 |
| 20260508231553 | 30 | 74 | 9.7 | 14.5 | 0.00 | 0.00 | 0.00 | 72 | 1011.4 |
| 20260508231054 | 30 | 96 | 8.0 | 17.7 | 0.00 | 0.00 | 0.00 | 72 | 1011.5 |
| 20260508230553 | 30 | 107 | 9.7 | 19.3 | 0.00 | 0.00 | 0.00 | 73 | 1011.4 |
| 20260508230053 | 29 | 75 | 8.0 | 19.3 | 0.00 | 0.00 | 0.00 | 73 | 1011.3 |
| 20260508225554 | 29 | 79 | 11.3 | 19.3 | 0.00 | 0.00 | 0.00 | 73 | 1011.2 |
| 20260508225053 | 30 | 108 | 12.9 | 19.3 | 0.00 | 0.00 | 0.00 | 73 | 1011.1 |
| 20260508224553 | 29 | 85 | 4.8 | 14.5 | 0.00 | 0.00 | 0.00 | 75 | 1011.1 |
| 20260508224053 | 29 | 91 | 8.0 | 14.5 | 0.00 | 0.00 | 0.00 | 75 | 1011.0 |
| 20260508223553 | 29 | 105 | 6.4 | 11.3 | 0.00 | 0.00 | 0.00 | 75 | 1010.8 |
| 20260508223052 | 29 | 119 | 4.8 | 17.7 | 0.00 | 0.00 | 0.00 | 77 | 1010.8 |
| 20260508222553 | 29 | 101 | 8.0 | 17.7 | 0.00 | 0.00 | 0.00 | 76 | 1010.6 |
| 20260508222053 | 28 | 104 | 17.7 | 17.7 | 0.00 | 0.00 | 0.00 | 77 | 1010.7 |
| 20260508221554 | 28 | 99 | 14.5 | 17.7 | 0.00 | 0.00 | 0.00 | 78 | 1010.6 |
| 20260508221053 | 28 | 126 | 4.8 | 17.7 | 0.00 | 0.00 | 0.00 | 78 | 1010.5 |
| 20260508220553 | 28 | 103 | 6.4 | 16.1 | 0.00 | 0.00 | 0.00 | 78 | 1010.4 |
| 20260508220053 | 28 | 97 | 6.4 | 16.1 | 0.00 | 0.00 | 0.00 | 78 | 1010.3 |
| 20260508215553 | 28 | 106 | 9.7 | 14.5 | 0.00 | 0.00 | 0.00 | 79 | 1010.3 |
| 20260508215054 | 28 | 118 | 8.0 | 12.9 | 0.00 | 0.00 | 0.00 | 80 | 1010.4 |
| 20260508214553 | 28 | 93 | 4.8 | 12.9 | 0.00 | 0.00 | 0.00 | 80 | 1010.1 |
| 20260508213052 | 28 | 92 | 11.3 | 19.3 | 0.00 | 0.00 | 0.00 | 79 | 1010.1 |
| 20260508212553 | 28 | 88 | 8.0 | 19.3 | 0.00 | 0.00 | 0.00 | 79 | 1010.1 |
| 20260508212053 | 28 | 107 | 4.8 | 17.7 | 0.00 | 0.00 | 0.00 | 79 | 1010.0 |
| 20260508211553 | 28 | 132 | 3.2 | 16.1 | 0.00 | 0.00 | 0.00 | 79 | 1010.1 |
| 20260508211053 | 28 | 148 | 6.4 | 16.1 | 0.00 | 0.00 | 0.00 | 79 | 1009.9 |
| 20260508210053 | 28 | 96 | 8.0 | 19.3 | 0.00 | 0.00 | 0.00 | 79 | 1010.1 |
| 20260508205553 | 28 | 94 | 11.3 | 19.3 | 0.00 | 0.00 | 0.00 | 78 | 1010.1 |
| 20260508205053 | 28 | 91 | 9.7 | 19.3 | 0.00 | 0.00 | 0.00 | 78 | 1010.1 |
| 20260508204553 | 28 | 126 | 12.9 | 20.9 | 0.00 | 0.00 | 0.00 | 79 | 1009.9 |
| 20260508204053 | 28 | 119 | 6.4 | 22.5 | 0.00 | 0.00 | 0.00 | 79 | 1010.0 |
| 20260508202552 | 28 | 105 | 4.8 | 20.9 | 0.00 | 0.00 | 0.00 | 79 | 1009.8 |
| 20260508202052 | 28 | 109 | 8.0 | 17.7 | 0.00 | 0.00 | 0.00 | 78 | 1009.8 |
| 20260508201053 | 28 | 118 | 6.4 | 20.9 | 0.00 | 0.00 | 0.00 | 78 | 1009.8 |
| 20260508200553 | 28 | 88 | 16.1 | 20.9 | 0.00 | 0.00 | 0.00 | 78 | 1009.7 |
| 20260508200053 | 28 | 102 | 12.9 | 20.9 | 0.00 | 0.00 | 0.00 | 78 | 1009.9 |
| 20260508195553 | 28 | 94 | 9.7 | 22.5 | 0.00 | 0.00 | 0.00 | 78 | 1009.8 |
| 20260508195053 | 28 | 100 | 14.5 | 22.5 | 0.00 | 0.00 | 0.00 | 78 | 1009.8 |
| 20260508194053 | 28 | 113 | 4.8 | 17.7 | 0.00 | 0.00 | 0.00 | 78 | 1009.6 |
| 20260508193553 | 28 | 100 | 17.7 | 17.7 | 0.00 | 0.00 | 0.00 | 78 | 1009.7 |
| 20260508192053 | 28 | 123 | 8.0 | 17.7 | 0.00 | 0.00 | 0.00 | 78 | 1009.8 |
| 20260508191553 | 28 | 88 | 6.4 | 17.7 | 0.00 | 0.00 | 0.00 | 78 | 1009.9 |
| 20260508191053 | 28 | 109 | 14.5 | 17.7 | 0.00 | 0.00 | 0.00 | 78 | 1009.8 |
| 20260508190553 | 28 | 95 | 9.7 | 17.7 | 0.00 | 0.00 | 0.00 | 79 | 1009.8 |
| 20260508190053 | 28 | 112 | 8.0 | 17.7 | 0.00 | 0.00 | 0.00 | 79 | 1009.8 |
| 20260508185553 | 28 | 120 | 6.4 | 19.3 | 0.00 | 0.00 | 0.00 | 79 | 1009.8 |
| 20260508185053 | 28 | 114 | 4.8 | 19.3 | 0.00 | 0.00 | 0.00 | 78 | 1009.8 |
| 20260508184553 | 28 | 143 | 8.0 | 19.3 | 0.00 | 0.00 | 0.00 | 78 | 1009.9 |
| 20260508184053 | 28 | 133 | 6.4 | 20.9 | 0.00 | 0.00 | 0.00 | 78 | 1009.8 |
| 20260508183553 | 28 | 96 | 6.4 | 20.9 | 0.00 | 0.00 | 0.00 | 78 | 1009.9 |
| 20260508183054 | 28 | 129 | 6.4 | 17.7 | 0.00 | 0.00 | 0.00 | 78 | 1009.9 |
| 20260508182554 | 28 | 133 | 3.2 | 17.7 | 0.00 | 0.00 | 0.00 | 78 | 1009.9 |
| 20260508181552 | 28 | 119 | 9.7 | 20.9 | 0.00 | 0.00 | 0.00 | 77 | 1010.1 |
| 20260508181053 | 28 | 136 | 9.7 | 20.9 | 0.00 | 0.00 | 0.00 | 77 | 1009.9 |
| 20260508180554 | 28 | 86 | 11.3 | 22.5 | 0.00 | 0.00 | 0.00 | 78 | 1010.1 |
| 20260508180053 | 28 | 83 | 8.0 | 22.5 | 0.00 | 0.00 | 0.00 | 78 | 1009.9 |
| 20260508175553 | 28 | 95 | 9.7 | 19.3 | 0.00 | 0.00 | 0.00 | 78 | 1010.2 |
| 20260508175053 | 28 | 132 | 6.4 | 20.9 | 0.00 | 0.00 | 0.00 | 78 | 1010.2 |
| 20260508174553 | 28 | 118 | 3.2 | 20.9 | 0.00 | 0.00 | 0.00 | 78 | 1010.4 |
| 20260508174053 | 28 | 133 | 6.4 | 20.9 | 0.00 | 0.00 | 0.00 | 78 | 1010.2 |
| 20260508173053 | 28 | 80 | 6.4 | 16.1 | 0.00 | 0.00 | 0.00 | 78 | 1010.6 |
| 20260508172553 | 28 | 108 | 6.4 | 17.7 | 0.00 | 0.00 | 0.00 | 77 | 1010.4 |
| 20260508172053 | 28 | 98 | 16.1 | 17.7 | 0.00 | 0.00 | 0.00 | 77 | 1010.4 |
| 20260508171553 | 28 | 95 | 11.3 | 24.1 | 0.00 | 0.00 | 0.00 | 77 | 1010.4 |
| 20260508170553 | 28 | 96 | 4.8 | 22.5 | 0.00 | 0.00 | 0.00 | 76 | 1010.6 |
| 20260508170053 | 28 | 108 | 9.7 | 22.5 | 0.00 | 0.00 | 0.00 | 76 | 1010.3 |
| 20260508165553 | 28 | 89 | 6.4 | 22.5 | 0.00 | 0.00 | 0.00 | 77 | 1010.3 |
| 20260508164553 | 28 | 109 | 8.0 | 24.1 | 0.00 | 0.00 | 0.00 | 75 | 1010.7 |
| 20260508164053 | 28 | 108 | 14.5 | 24.1 | 0.00 | 0.00 | 0.00 | 76 | 1010.6 |
| 20260508163552 | 28 | 107 | 6.4 | 22.5 | 0.00 | 0.00 | 0.00 | 76 | 1010.6 |
| 20260508163053 | 28 | 108 | 8.0 | 22.5 | 0.00 | 0.00 | 0.00 | 76 | 1010.8 |
| 20260508162053 | 28 | 116 | 11.3 | 24.1 | 0.00 | 0.00 | 0.00 | 76 | 1011.0 |
| 20260508161553 | 28 | 97 | 17.7 | 24.1 | 0.00 | 0.00 | 0.00 | 75 | 1010.8 |
| 20260508161053 | 28 | 97 | 20.9 | 24.1 | 0.00 | 0.00 | 0.00 | 76 | 1010.9 |
| 20260508160553 | 28 | 88 | 19.3 | 20.9 | 0.00 | 0.00 | 0.00 | 76 | 1011.0 |
| 20260508160053 | 28 | 117 | 8.0 | 27.4 | 0.00 | 0.00 | 0.00 | 76 | 1011.0 |
| 20260508155553 | 28 | 77 | 16.1 | 27.4 | 0.00 | 0.00 | 0.00 | 76 | 1010.9 |
| 20260508155053 | 28 | 117 | 17.7 | 22.5 | 0.00 | 0.00 | 0.00 | 76 | 1010.8 |
| 20260508154053 | 28 | 107 | 8.0 | 24.1 | 0.00 | 0.00 | 0.00 | 76 | 1011.0 |
| 20260508153552 | 28 | 96 | 16.1 | 24.1 | 0.00 | 0.00 | 0.00 | 76 | 1011.0 |
| 20260508153053 | 28 | 108 | 6.4 | 25.7 | 0.00 | 0.00 | 0.00 | 76 | 1011.3 |
| 20260508152553 | 28 | 99 | 14.5 | 25.7 | 0.00 | 0.00 | 0.00 | 76 | 1011.3 |
| 20260508151553 | 28 | 102 | 9.7 | 22.5 | 0.00 | 0.00 | 0.00 | 76 | 1011.4 |
| 20260508151052 | 28 | 88 | 9.7 | 22.5 | 0.00 | 0.00 | 0.00 | 75 | 1011.2 |
| 20260508150553 | 28 | 99 | 9.7 | 24.1 | 0.00 | 0.00 | 0.00 | 75 | 1011.4 |
| 20260508145553 | 29 | 105 | 11.3 | 25.7 | 0.00 | 0.00 | 0.00 | 75 | 1011.5 |
| 20260508145053 | 29 | 92 | 4.8 | 20.9 | 0.00 | 0.00 | 0.00 | 75 | 1011.7 |
| 20260508144554 | 29 | 140 | 8.0 | 22.5 | 0.00 | 0.00 | 0.00 | 74 | 1011.6 |
| 20260508143552 | 29 | 117 | 14.5 | 16.1 | 0.00 | 0.00 | 0.00 | 74 | 1011.7 |
| 20260508143053 | 29 | 126 | 6.4 | 20.9 | 0.00 | 0.00 | 0.00 | 75 | 1011.8 |
| 20260508142553 | 29 | 102 | 6.4 | 20.9 | 0.00 | 0.00 | 0.00 | 75 | 1011.8 |
| 20260508141553 | 29 | 95 | 4.8 | 25.7 | 0.00 | 0.00 | 0.00 | 75 | 1011.8 |
| 20260508141053 | 29 | 96 | 6.4 | 25.7 | 0.00 | 0.00 | 0.00 | 75 | 1011.7 |
| 20260508140053 | 29 | 79 | 4.8 | 24.1 | 0.00 | 0.00 | 0.00 | 75 | 1011.6 |
| 20260508135553 | 29 | 110 | 16.1 | 25.7 | 0.00 | 0.00 | 0.00 | 74 | 1011.5 |
| 20260508135053 | 29 | 98 | 8.0 | 25.7 | 0.00 | 0.00 | 0.00 | 73 | 1011.5 |
| 20260508134553 | 29 | 91 | 16.1 | 25.7 | 0.00 | 0.00 | 0.00 | 73 | 1011.7 |
| 20260508134053 | 29 | 75 | 8.0 | 25.7 | 0.00 | 0.00 | 0.00 | 73 | 1011.6 |
| 20260508133552 | 30 | 108 | 19.3 | 25.7 | 0.00 | 0.00 | 0.00 | 72 | 1011.6 |
| 20260508132553 | 30 | 152 | 8.0 | 20.9 | 0.00 | 0.00 | 0.00 | 72 | 1011.3 |
| 20260508131553 | 30 | 97 | 9.7 | 29.0 | 0.00 | 0.00 | 0.00 | 71 | 1011.2 |
| 20260508131053 | 30 | 123 | 6.4 | 20.9 | 0.00 | 0.00 | 0.00 | 72 | 1011.2 |
| 20260508130053 | 30 | 146 | 8.0 | 19.3 | 0.00 | 0.00 | 0.00 | 72 | 1011.2 |
| 20260508125553 | 30 | 72 | 4.8 | 14.5 | 0.00 | 0.00 | 0.00 | 72 | 1011.0 |
| 20260508125053 | 30 | 91 | 4.8 | 19.3 | 0.00 | 0.00 | 0.00 | 72 | 1011.0 |
| 20260508124553 | 30 | 105 | 8.0 | 19.3 | 0.00 | 0.00 | 0.00 | 72 | 1010.8 |
| 20260508124053 | 30 | 101 | 9.7 | 20.9 | 0.00 | 0.00 | 0.00 | 72 | 1011.0 |
| 20260508123553 | 30 | 93 | 12.9 | 20.9 | 0.00 | 0.00 | 0.00 | 72 | 1010.7 |
| 20260508123053 | 30 | 86 | 4.8 | 17.7 | 0.00 | 0.00 | 0.00 | 72 | 1010.5 |
| 20260508122553 | 30 | 112 | 3.2 | 22.5 | 0.00 | 0.00 | 0.00 | 71 | 1010.7 |
| 20260508122053 | 30 | 76 | 14.5 | 22.5 | 0.00 | 0.00 | 0.00 | 70 | 1010.6 |
| 20260508121053 | 30 | 158 | 3.2 | 22.5 | 0.00 | 0.00 | 0.00 | 71 | 1010.4 |
| 20260508120553 | 30 | 129 | 9.7 | 22.5 | 0.00 | 0.00 | 0.00 | 71 | 1010.4 |
| 20260508120053 | 30 | 112 | 11.3 | 17.7 | 0.00 | 0.00 | 0.00 | 70 | 1010.0 |
| 20260508115553 | 30 | 108 | 9.7 | 17.7 | 0.00 | 0.00 | 0.00 | 71 | 1010.1 |
| 20260508115053 | 30 | 133 | 4.8 | 14.5 | 0.00 | 0.00 | 0.00 | 71 | 1009.8 |
| 20260508114554 | 30 | 127 | 4.8 | 17.7 | 0.00 | 0.00 | 0.00 | 70 | 1009.8 |
| 20260508114053 | 30 | 54 | 1.6 | 17.7 | 0.00 | 0.00 | 0.00 | 70 | 1009.9 |
| 20260508113553 | 30 | 177 | 3.2 | 20.9 | 0.00 | 0.00 | 0.00 | 70 | 1009.7 |
| 20260508112553 | 30 | 185 | 3.2 | 19.3 | 0.00 | 0.00 | 0.00 | 69 | 1009.8 |
| 20260508112055 | 31 | 134 | 1.6 | 19.3 | 0.00 | 0.00 | 0.00 | 68 | 1009.7 |
| 20260508111053 | 31 | 116 | 14.5 | 19.3 | 0.00 | 0.00 | 0.00 | 69 | 1009.4 |
| 20260508110553 | 31 | 118 | 8.0 | 16.1 | 0.00 | 0.00 | 0.00 | 69 | 1009.4 |
| 20260508110054 | 31 | 196 | 3.2 | 22.5 | 0.00 | 0.00 | 0.00 | 69 | 1009.3 |
| 20260508105553 | 31 | 213 | 1.6 | 22.5 | 0.00 | 0.00 | 0.00 | 68 | 1009.4 |
| 20260508105053 | 31 | 157 | 3.2 | 19.3 | 0.00 | 0.00 | 0.00 | 69 | 1009.0 |
| 20260508104553 | 31 | 159 | 4.8 | 19.3 | 0.00 | 0.00 | 0.00 | 69 | 1009.2 |
| 20260508104053 | 31 | 109 | 12.9 | 19.3 | 0.00 | 0.00 | 0.00 | 68 | 1009.0 |
| 20260508103553 | 31 | 176 | 3.2 | 19.3 | 0.00 | 0.00 | 0.00 | 67 | 1008.9 |
| 20260508103053 | 31 | 111 | 11.3 | 20.9 | 0.00 | 0.00 | 0.00 | 67 | 1008.7 |